Change the Weather History Date:

Thursday, December 19, 2013

  Actual Average (KRPD) Record (KRPD)
Temperature  
Mean Temperature 13 °F -  
Max Temperature 21 °F 22 °F 41 °F (2006)
Min Temperature 5 °F 8 °F -11 °F (2004)
Degree Days  
Heating Degree Days 52    
Moisture  
Dew Point 12 °F    
Average Humidity 81    
Maximum Humidity 95    
Minimum Humidity 73    
Precipitation  
Precipitation 0.00 in - - ()
Sea Level Pressure  
Sea Level Pressure 29.97 in    
Wind  
Wind Speed 7 mph (NNE)    
Max Wind Speed 16 mph    
Max Gust Speed 22 mph    
Visibility 10 miles    
Events Snow    
Averages and records for this station are not official NWS values.
T = Trace of Precipitation, MM = Missing Value Source: NWS Daily Summary

Daily Weather History Graph

Daily Weather History Graph

Search for Another Location

Airport or City:

Trip Planner

Search our weather history database for the weather conditions in past years. The results will help you decide how hot, cold, wet, or windy it might be!

Date:

Astronomy

Dec. 19, 2013 Rise Set
Actual Time 7:40 AM CST 4:22 PM CST
Civil Twilight 7:05 AM CST 4:56 PM CST
Nautical Twilight 6:28 AM CST 5:34 PM CST
Astronomical Twilight 5:52 AM CST 6:10 PM CST
Moon 6:54 PM CST (12/19) 8:53 AM CST (12/19)
Length of Visible Light 9h 50m
Length of Day
8h 42m
Waning Gibbous, 95% of the Moon is Illuminated
Dec 19
Waning Gibbous
Dec 25
Last Quarter
Jan 1
New
Jan 7
First Quarter
Jan 15
Full

Hourly Weather History & Observations

Time (CST) Temp. Windchill Dew Point Humidity Pressure Visibility Wind Dir Wind Speed Gust Speed Precip Events Conditions
12:15 AM 7.2 °F - 4.8 °F 90% 29.74 in 10.0 mi Calm Calm - N/A   Clear
12:35 AM 5.4 °F - 2.5 °F 88% 29.75 in 10.0 mi Calm Calm - N/A   Clear
12:55 AM 6.4 °F -3.9 °F 4.3 °F 91% 29.76 in 10.0 mi NNW 5.8 mph - N/A   Clear
1:15 AM 16.7 °F 7.2 °F 15.4 °F 95% 29.76 in 10.0 mi NW 6.9 mph - N/A   Clear
1:35 AM 19.2 °F 7.7 °F 16.9 °F 91% 29.77 in 10.0 mi NNW 10.4 mph - N/A   Clear
1:55 AM 18.9 °F - 16.5 °F 91% 29.79 in 10.0 mi Calm Calm - N/A   Clear
2:15 AM 16.9 °F 8.5 °F 14.0 °F 88% 29.81 in 10.0 mi NW 5.8 mph - N/A   Clear
2:35 AM 16.3 °F 5.7 °F 14.2 °F 91% 29.81 in 10.0 mi NNW 8.1 mph - N/A   Clear
2:55 AM 17.1 °F 10.0 °F 14.5 °F 90% 29.83 in 10.0 mi NW 4.6 mph - N/A   Clear
3:15 AM 17.1 °F 10.0 °F 14.9 °F 91% 29.84 in 10.0 mi NW 4.6 mph - N/A   Clear
3:35 AM 16.5 °F 6.9 °F 14.2 °F 90% 29.83 in 10.0 mi NNW 6.9 mph - N/A   Clear
3:55 AM 17.2 °F 11.9 °F 14.2 °F 88% 29.84 in 10.0 mi NW 3.5 mph - N/A   Clear
4:15 AM 16.5 °F - 13.6 °F 88% 29.85 in 10.0 mi Calm Calm - N/A   Clear
4:35 AM 15.8 °F - 12.7 °F 88% 29.86 in 10.0 mi Calm Calm - N/A   Clear
4:55 AM 14.4 °F - 11.3 °F 88% 29.88 in 10.0 mi Calm Calm - N/A   Clear
5:15 AM 13.5 °F 7.5 °F 11.3 °F 91% 29.88 in 10.0 mi NNW 3.5 mph - N/A   Scattered Clouds
5:35 AM 14.9 °F 5.0 °F 12.2 °F 89% 29.89 in 10.0 mi North 6.9 mph - N/A   Mostly Cloudy
5:55 AM 14.5 °F 4.6 °F 11.5 °F 88% 29.90 in 10.0 mi NNW 6.9 mph - N/A   Overcast
6:15 AM 15.1 °F 3.3 °F 11.8 °F 87% 29.91 in 10.0 mi North 9.2 mph - N/A   Scattered Clouds
6:35 AM 15.4 °F 3.8 °F 12.2 °F 87% 29.92 in 10.0 mi NNW 9.2 mph - N/A   Scattered Clouds
6:55 AM 16.0 °F 5.3 °F 12.7 °F 87% 29.94 in 10.0 mi NNW 8.1 mph - N/A   Overcast
7:15 AM 16.3 °F 5.7 °F 13.1 °F 87% 29.96 in 10.0 mi North 8.1 mph - N/A   Overcast
7:35 AM 16.5 °F 5.1 °F 13.1 °F 86% 29.97 in 10.0 mi North 9.2 mph - N/A   Overcast
7:55 AM 16.5 °F 4.3 °F 13.1 °F 86% 29.97 in 10.0 mi North 10.4 mph - N/A   Overcast
8:15 AM 16.7 °F 4.5 °F 13.5 °F 87% 29.98 in 7.0 mi North 10.4 mph - N/A Snow Light Snow
8:35 AM 17.1 °F 4.3 °F 13.5 °F 86% 29.99 in 5.0 mi North 11.5 mph - N/A Snow Light Snow
8:55 AM 17.2 °F 5.2 °F 13.5 °F 85% 29.99 in 5.0 mi North 10.4 mph 16.1 mph N/A Snow Light Snow
9:15 AM 17.4 °F 5.4 °F 13.1 °F 83% 30.00 in 7.0 mi North 10.4 mph - N/A Snow Light Snow
9:35 AM 17.6 °F 7.3 °F 12.9 °F 82% 30.01 in 10.0 mi North 8.1 mph - N/A   Overcast
9:55 AM 17.6 °F 6.4 °F 12.6 °F 81% 30.03 in 10.0 mi NNE 9.2 mph - N/A   Overcast
10:15 AM 17.8 °F 6.6 °F 12.0 °F 78% 30.04 in 10.0 mi NNE 9.2 mph - N/A   Mostly Cloudy
10:35 AM 18.3 °F 7.3 °F 11.8 °F 76% 30.05 in 10.0 mi NNE 9.2 mph - N/A   Scattered Clouds
10:55 AM 18.9 °F 8.0 °F 11.8 °F 74% 30.04 in 10.0 mi NNE 9.2 mph - N/A   Scattered Clouds
11:15 AM 19.0 °F 5.0 °F 12.2 °F 75% 30.04 in 10.0 mi NNE 15.0 mph 19.6 mph N/A   Clear
11:35 AM 19.4 °F 7.2 °F 12.2 °F 74% 30.04 in 10.0 mi NNE 11.5 mph 17.3 mph N/A   Clear
11:55 AM 19.6 °F 6.8 °F 12.2 °F 73% 30.03 in 10.0 mi NNE 12.7 mph 21.9 mph N/A   Clear
12:15 PM 19.9 °F 6.7 °F 12.6 °F 73% 30.03 in 10.0 mi NNE 13.8 mph - N/A   Clear
12:35 PM 20.1 °F 8.8 °F 12.9 °F 74% 30.03 in 10.0 mi NNE 10.4 mph - N/A   Scattered Clouds
12:55 PM 20.3 °F 6.1 °F 13.1 °F 74% 30.02 in 10.0 mi NNE 16.1 mph 20.7 mph N/A   Scattered Clouds
1:15 PM 20.7 °F 8.2 °F 13.3 °F 73% 30.01 in 10.0 mi NE 12.7 mph - N/A   Clear
1:35 PM 21.0 °F 10.6 °F 13.8 °F 74% 30.01 in 10.0 mi NNE 9.2 mph - N/A   Scattered Clouds
1:55 PM 21.2 °F 8.3 °F 14.0 °F 74% 30.00 in 10.0 mi NNE 13.8 mph - N/A   Scattered Clouds
2:15 PM 20.7 °F 8.2 °F 13.6 °F 74% 30.00 in 10.0 mi NNE 12.7 mph - N/A   Scattered Clouds
2:35 PM 20.3 °F 7.2 °F 13.8 °F 76% 29.99 in 10.0 mi NNE 13.8 mph - N/A   Clear
2:55 PM 20.3 °F 9.0 °F 13.6 °F 75% 30.00 in 10.0 mi NNE 10.4 mph 18.4 mph N/A   Mostly Cloudy
3:15 PM 20.1 °F 7.5 °F 13.1 °F 74% 30.02 in 10.0 mi NE 12.7 mph 19.6 mph N/A   Overcast
3:35 PM 19.9 °F 10.1 °F 13.1 °F 75% 30.03 in 10.0 mi NE 8.1 mph - N/A   Overcast
3:55 PM 19.9 °F 9.3 °F 13.3 °F 75% 30.02 in 10.0 mi NE 9.2 mph - N/A   Overcast
4:15 PM 19.8 °F 9.1 °F 13.3 °F 76% 30.03 in 10.0 mi NE 9.2 mph - N/A   Overcast
4:35 PM 19.4 °F 6.6 °F 13.1 °F 76% 30.03 in 10.0 mi NNE 12.7 mph - N/A   Overcast
4:55 PM 19.4 °F 7.9 °F 13.1 °F 76% 30.03 in 10.0 mi NE 10.4 mph - N/A   Overcast
5:15 PM 19.2 °F 8.4 °F 13.1 °F 77% 30.03 in 10.0 mi NE 9.2 mph - N/A   Overcast
5:35 PM 19.0 °F 7.5 °F 13.3 °F 78% 30.03 in 10.0 mi NNE 10.4 mph - N/A   Overcast
5:55 PM 18.9 °F 5.3 °F 12.6 °F 76% 30.03 in 10.0 mi NE 13.8 mph 18.4 mph N/A   Overcast
6:15 PM 18.3 °F 5.2 °F 11.7 °F 75% 30.03 in 10.0 mi NE 12.7 mph - N/A   Overcast
6:35 PM 18.1 °F 5.0 °F 11.7 °F 76% 30.04 in 10.0 mi NE 12.7 mph - N/A   Overcast
6:55 PM 17.6 °F 5.7 °F 11.3 °F 76% 30.04 in 10.0 mi NE 10.4 mph 17.3 mph N/A   Overcast
7:15 PM 17.6 °F 6.4 °F 11.3 °F 76% 30.05 in 10.0 mi NE 9.2 mph - N/A   Overcast
7:35 PM 17.4 °F 4.1 °F 11.3 °F 77% 30.05 in 10.0 mi NE 12.7 mph 17.3 mph N/A   Overcast
7:55 PM 17.4 °F 6.2 °F 11.1 °F 76% 30.04 in 10.0 mi NE 9.2 mph - N/A   Overcast
8:15 PM 17.2 °F 6.8 °F 11.3 °F 78% 30.04 in 10.0 mi NNE 8.1 mph - N/A   Overcast
8:35 PM 17.2 °F 7.8 °F 11.1 °F 77% 30.05 in 10.0 mi NE 6.9 mph - N/A   Overcast
8:55 PM 17.1 °F 6.6 °F 11.1 °F 77% 30.05 in 10.0 mi NE 8.1 mph - N/A   Overcast
9:15 PM 16.7 °F 3.2 °F 11.1 °F 79% 30.04 in 10.0 mi NNE 12.7 mph - N/A   Overcast
9:35 PM 16.5 °F 4.3 °F 11.1 °F 79% 30.03 in 10.0 mi NE 10.4 mph - N/A   Overcast
9:55 PM 16.5 °F 4.3 °F 10.9 °F 79% 30.03 in 10.0 mi NE 10.4 mph - N/A   Overcast
10:15 PM 16.5 °F 6.9 °F 10.9 °F 79% 30.04 in 10.0 mi NE 6.9 mph - N/A   Overcast
10:35 PM 16.5 °F 6.0 °F 10.9 °F 79% 30.03 in 10.0 mi NE 8.1 mph - N/A   Overcast
10:55 PM 16.3 °F 4.9 °F 11.1 °F 80% 30.03 in 5.0 mi NNE 9.2 mph - N/A Snow Light Snow
11:15 PM 15.8 °F 4.2 °F 12.0 °F 85% 30.03 in 4.0 mi NNE 9.2 mph - N/A Snow Light Snow
11:35 PM 15.6 °F 4.9 °F 11.8 °F 85% 30.03 in 7.0 mi NE 8.1 mph - N/A Snow Light Snow
11:55 PM 15.4 °F 3.8 °F 11.5 °F 84% 30.02 in 7.0 mi NE 9.2 mph - N/A Snow Light Snow